When you browse on this site, cookies collect data to enhance your experience and personalize the content and advertising you see.
Visit our Privacy Policy to learn more. By continuing to use the site, you agree to this use of cookies and data.
  • In Portugal
  • List of Countries
  • For 7 days
  • Water Temperature
  • Satellite Maps
  • Weather Map
  • Weather Widgets
  • user-avatar
    Login

    Hourly Weather Cobija

    Today, 11 December, Tuesday

    Time Temperature Precipitation Wind Pressure Humidity
    00:00 +23°C° 0.4 mm 0 mps 739 mmHg 95%
    01:00 +23°C° 0.4 mm 0 mps 739 mmHg 97%
    02:00 +23°C° 0.2 mm 0 mps 739 mmHg 98%
    03:00 +22°C° 0.2 mm 0 mps 739 mmHg 98%
    04:00 +22°C° 0.2 mm 0 mps 739 mmHg 98%
    05:00 +23°C° 0.3 mm 0 mps 740 mmHg 96%
    06:00 +24°C° 0.3 mm 0 mps 740 mmHg 93%
    07:00 +27°C° 0.3 mm 1 mps 741 mmHg 90%
    08:00 +29°C° 0.4 mm 1 mps 741 mmHg 78%
    09:00 +31°C° 0.4 mm 1 mps 741 mmHg 66%
    10:00 +34°C° 0.4 mm 1 mps 741 mmHg 54%
    11:00 +33°C° 0.2 mm 1 mps 740 mmHg 57%
    12:00 +33°C° 0.2 mm 1 mps 739 mmHg 60%
    13:00 +33°C° 0.2 mm 1 mps 738 mmHg 64%
    14:00 +33°C° 0.3 mm 1 mps 737 mmHg 64%
    15:00 +33°C° 0.3 mm 1 mps 737 mmHg 65%
    16:00 +32°C° 0.3 mm 1 mps 736 mmHg 66%
    17:00 +31°C° 0 mm 1 mps 736 mmHg 72%
    18:00 +29°C° 0 mm 1 mps 737 mmHg 78%
    19:00 +28°C° 0 mm 1 mps 737 mmHg 84%
    20:00 +27°C° 0 mm 1 mps 737 mmHg 85%
    21:00 +27°C° 0 mm 1 mps 738 mmHg 87%
    22:00 +26°C° 0 mm 1 mps 738 mmHg 88%
    23:00 +26°C° 0 mm 1 mps 738 mmHg 88%

    Tomorrow, 12 December, Wednesday

    Time Temperature Precipitation Wind Pressure Humidity
    00:00 +26°C° 0 mm 1 mps 738 mmHg 89%
    01:00 +26°C° 0 mm 1 mps 738 mmHg 90%
    02:00 +25°C° 0.2 mm 1 mps 738 mmHg 92%
    03:00 +25°C° 0.2 mm 1 mps 738 mmHg 95%
    04:00 +24°C° 0.2 mm 1 mps 738 mmHg 98%
    05:00 +25°C° 0.4 mm 1 mps 739 mmHg 97%
    06:00 +25°C° 0.4 mm 1 mps 740 mmHg 96%
    07:00 +26°C° 0.4 mm 1 mps 740 mmHg 95%
    08:00 +27°C° 1 mm 1 mps 740 mmHg 93%
    09:00 +29°C° 1 mm 1 mps 740 mmHg 90%
    10:00 +30°C° 1 mm 1 mps 740 mmHg 88%
    11:00 +31°C° 0.9 mm 1 mps 739 mmHg 83%
    12:00 +31°C° 0.9 mm 1 mps 739 mmHg 78%
    13:00 +32°C° 0.9 mm 1 mps 738 mmHg 73%
    14:00 +32°C° 0.2 mm 1 mps 737 mmHg 69%
    15:00 +32°C° 0.2 mm 1 mps 736 mmHg 65%
    16:00 +32°C° 0.2 mm 1 mps 736 mmHg 61%
    17:00 +31°C° 0 mm 1 mps 736 mmHg 68%
    18:00 +29°C° 0 mm 1 mps 736 mmHg 76%
    19:00 +27°C° 0 mm 1 mps 736 mmHg 83%
    20:00 +25°C° 0 mm 0 mps 737 mmHg 84%
    21:00 +24°C° 0 mm 0 mps 737 mmHg 86%
    22:00 +24°C° 0 mm 0 mps 738 mmHg 87%
    23:00 +24°C° 0 mm 0 mps 738 mmHg 87%

    Day after tomorrow, 13 December, Thursday

    Time Temperature Precipitation Wind Pressure Humidity
    00:00 +25°C° 0 mm 1 mps 737 mmHg 87%
    01:00 +25°C° 0 mm 1 mps 737 mmHg 87%
    02:00 +25°C° 0.1 mm 1 mps 737 mmHg 89%
    03:00 +25°C° 0.1 mm 1 mps 737 mmHg 90%
    04:00 +24°C° 0.1 mm 1 mps 737 mmHg 91%
    05:00 +25°C° 0.5 mm 1 mps 738 mmHg 89%
    06:00 +24°C° 0.5 mm 0 mps 739 mmHg 88%
    07:00 +25°C° 0.5 mm 0 mps 739 mmHg 86%
    08:00 +29°C° 0.5 mm 1 mps 739 mmHg 77%
    09:00 +31°C° 0.5 mm 1 mps 739 mmHg 69%
    10:00 +33°C° 0.5 mm 1 mps 739 mmHg 61%
    11:00 +34°C° 0.1 mm 1 mps 738 mmHg 56%
    12:00 +35°C° 0.1 mm 1 mps 737 mmHg 52%
    13:00 +35°C° 0.1 mm 1 mps 736 mmHg 48%
    14:00 +35°C° 0 mm 1 mps 735 mmHg 48%
    15:00 +35°C° 0 mm 1 mps 735 mmHg 47%
    16:00 +35°C° 0 mm 1 mps 734 mmHg 47%
    17:00 +33°C° 0 mm 1 mps 734 mmHg 55%
    18:00 +31°C° 0 mm 1 mps 735 mmHg 63%
    19:00 +29°C° 0 mm 1 mps 735 mmHg 72%
    20:00 +28°C° 0.2 mm 1 mps 736 mmHg 77%
    21:00 +27°C° 0.2 mm 1 mps 737 mmHg 82%
    22:00 +27°C° 0.2 mm 1 mps 737 mmHg 88%
    23:00 +26°C° 0.6 mm 1 mps 737 mmHg 90%

    14 December, Friday

    Time Temperature Precipitation Wind Pressure Humidity
    00:00 +26°C° 0.6 mm 1 mps 737 mmHg 93%
    01:00 +25°C° 0.6 mm 1 mps 736 mmHg 95%
    02:00 +25°C° 0.5 mm 1 mps 737 mmHg 96%
    03:00 +25°C° 0.5 mm 1 mps 737 mmHg 96%
    04:00 +24°C° 0.5 mm 1 mps 737 mmHg 97%
    05:00 +25°C° 0.6 mm 1 mps 737 mmHg 95%
    06:00 +26°C° 0.6 mm 1 mps 738 mmHg 93%
    07:00 +26°C° 0.6 mm 2 mps 739 mmHg 91%
    08:00 +29°C° 0 mm 2 mps 739 mmHg 78%
    09:00 +31°C° 0 mm 2 mps 739 mmHg 65%
    10:00 +34°C° 0 mm 2 mps 739 mmHg 52%
    11:00 +35°C° 0.2 mm 2 mps 738 mmHg 52%
    12:00 +35°C° 0.2 mm 2 mps 737 mmHg 52%
    13:00 +36°C° 0.2 mm 2 mps 736 mmHg 52%
    14:00 +35°C° 0.3 mm 2 mps 735 mmHg 55%
    15:00 +34°C° 0.3 mm 2 mps 735 mmHg 58%
    16:00 +34°C° 0.3 mm 2 mps 734 mmHg 62%
    17:00 +31°C° 0 mm 2 mps 735 mmHg 69%
    18:00 +29°C° 0 mm 1 mps 735 mmHg 75%
    19:00 +28°C° 0 mm 1 mps 736 mmHg 82%
    20:00 +27°C° 0.1 mm 1 mps 737 mmHg 85%
    21:00 +27°C° 0.1 mm 1 mps 737 mmHg 87%
    22:00 +26°C° 0.1 mm 1 mps 738 mmHg 90%
    23:00 +26°C° 0.4 mm 1 mps 738 mmHg 92%

    15 December, Saturday

    Time Temperature Precipitation Wind Pressure Humidity
    00:00 +25°C° 0.4 mm 1 mps 738 mmHg 95%
    01:00 +25°C° 0.4 mm 1 mps 737 mmHg 98%
    02:00 +24°C° 0.3 mm 1 mps 738 mmHg 98%
    03:00 +24°C° 0.3 mm 1 mps 738 mmHg 98%
    04:00 +24°C° 0.3 mm 1 mps 738 mmHg 99%
    05:00 +25°C° 0 mm 1 mps 739 mmHg 97%
    06:00 +26°C° 0 mm 1 mps 740 mmHg 95%
    07:00 +26°C° 0 mm 1 mps 740 mmHg 93%
    08:00 +28°C° 0.7 mm 2 mps 740 mmHg 87%
    09:00 +29°C° 0.7 mm 2 mps 740 mmHg 82%
    10:00 +30°C° 0.7 mm 2 mps 740 mmHg 77%
    11:00 +31°C° 1.3 mm 2 mps 739 mmHg 79%
    12:00 +31°C° 1.3 mm 2 mps 739 mmHg 82%
    13:00 +31°C° 1.3 mm 1 mps 738 mmHg 84%
    14:00 +30°C° 1.3 mm 1 mps 737 mmHg 85%
    15:00 +30°C° 1.3 mm 1 mps 737 mmHg 86%
    16:00 +29°C° 1.3 mm 1 mps 737 mmHg 87%
    17:00 +28°C° 0.5 mm 1 mps 737 mmHg 90%
    18:00 +27°C° 0.5 mm 1 mps 738 mmHg 93%
    19:00 +26°C° 0.5 mm 1 mps 738 mmHg 96%
    20:00 +25°C° 0.6 mm 1 mps 739 mmHg 97%
    21:00 +25°C° 0.6 mm 1 mps 739 mmHg 97%
    22:00 +25°C° 0.6 mm 1 mps 740 mmHg 98%
    23:00 +25°C° 0 mm 1 mps 740 mmHg 98%

    16 December, Sunday

    Time Temperature Precipitation Wind Pressure Humidity
    00:00 +24°C° 0 mm 1 mps 739 mmHg 98%
    01:00 +24°C° 0 mm 1 mps 739 mmHg 98%
    02:00 +24°C° 0.1 mm 1 mps 739 mmHg 98%
    03:00 +24°C° 0.1 mm 1 mps 739 mmHg 98%
    04:00 +24°C° 0.1 mm 1 mps 739 mmHg 98%
    05:00 +24°C° 0.1 mm 1 mps 740 mmHg 98%
    06:00 +24°C° 0.1 mm 1 mps 741 mmHg 97%
    07:00 +25°C° 0.1 mm 1 mps 741 mmHg 97%
    08:00 +26°C° 0.8 mm 1 mps 741 mmHg 93%
    09:00 +27°C° 0.8 mm 1 mps 741 mmHg 90%
    10:00 +28°C° 0.8 mm 1 mps 741 mmHg 87%
    11:00 +28°C° 1 mm 1 mps 741 mmHg 87%
    12:00 +28°C° 1 mm 1 mps 740 mmHg 87%
    13:00 +29°C° 1 mm 1 mps 739 mmHg 86%
    14:00 +28°C° 0.6 mm 1 mps 738 mmHg 87%
    15:00 +28°C° 0.6 mm 1 mps 738 mmHg 88%
    16:00 +28°C° 0.6 mm 1 mps 737 mmHg 89%
    17:00 +25°C° 0.3 mm 0 mps 737 mmHg 91%
    18:00 +24°C° 0.3 mm 0 mps 738 mmHg 94%
    19:00 +23°C° 0.3 mm 0 mps 738 mmHg 96%
    20:00 +23°C° 0.1 mm 0 mps 738 mmHg 97%
    21:00 +23°C° 0.1 mm 0 mps 739 mmHg 97%
    22:00 +23°C° 0.1 mm 0 mps 739 mmHg 98%
    23:00 +23°C° 0.4 mm 0 mps 739 mmHg 98%
    Show more